Showing default

OPS 9323 (IDSCS 10), 2650

Orbit data source: Space-Track

OPS 9323 (IDSCS 10), 2650 is a payload satellite owned by USAF SSD (US) in GEO that was launched on Wed, 18 Jan 1967 UTC via a TITAN IIIC launch vehicle from the Air Force Eastern Test Range (AFETR). Payload-class satellites include a variety of spacecraft equipped with specific instruments for various scientific and technological missions. These include communications satellites like Starlink; space stations such as the ISS; scientific satellites like the Hubble; Earth observation satellites from companies like Planet Labs, Umbra, and HawkEye 360; GPS; miniature CubeSats for education and research; and military/defense satellites.

Not visible in the next 10 days
Identifier
2650, 1967-003C
Orbit
GEO
Country
Flag of USUS
Related business
Manufacturer
Philco-Ford WDL
Mission
Non-operational spacecraft
Bus & Motor
IDCSP, Unknown motor
Mass
45 kg wet, 45 kg dry
Launch date (UTC)
1967-01-18 (60 years ago)
Launch vehicle
TITAN IIIC
Launch site
Air Force Eastern Test Range (AFETR)
Object type
Payload
Rocket body
Debris
Shape & HBR
ICO POLY, 0.5 m
Radar Cross Section
Medium (>0.1 m² and <1 m²)

Expand to show TLE details & history
Last TLE update: 3 days ago

TLE from 3 days ago
0 OPS 9323 (IDSCS 10)
1 02650U 67003C   26204.88874117 -.00000085  00000-0  00000-0 0  9991
2 02650   8.3561  44.3918 0034214 113.9510  58.4569  1.08221803140840
Epoch: 2026-07-23T21:19Z
TLE epoch observation values (Epoch: 2026-07-23T21:19:47.237Z)
Latitude
1.05859°
Longitude
-44.3471°
Altitude
33,623.953 km
Speed
3.16 km/s
True Right ascension
14h 28m 53s
True Declination
1° 03' 27"
Sunlit
Object was in daylight at epoch
Visualization orbit readout
Latitude
Unknown
Longitude
Unknown
Altitude
Unknown
Speed
Unknown
Apparent Right ascension
Unknown
Apparent Declination
Unknown
Sunlit
N/A
Visualization observer readout
Local Sidereal Time
10:54:47
Azimuth
Unknown
Elevation
Unknown
Doppler factor
Unknown
Orbital elements
Apogee altitude
33,833.692 km
Perigee altitude
33,559.468 km
Semi-major axis
40,074.717 km
Eccentricity
0.00342
Inclination
8.3561°
RAAN
44.3918°
Arg. of periapsis
113.951°
True anomaly
58.79178°
Mean anomaly
58.4569°
Eccentric anomaly
58.62427°
Mean motion
0.27054 °/min
Orbital period
1,330.65 mins
BSTAR
0
Loading maneuver chart data...
Computing Atmospheric mass density...
Loading historical data...
Loading historical data...
Loading historical data...
Loading historical data...
Loading historical data...
Loading historical data...
Loading historical data...

Documentation

Showing up to 5 results
|